« Back
NWS Peachtree City, Ga » Text Product » GA Regional Weather Roundup


Printer-friendly Version
Current Version              Previous Versions:   1  2  3  4  5  6  7  8  9  

Regional Weather Roundup

748
ASUS42 KFFC 190503
RWRGA
WEATHER ROUNDUP FOR GEORGIA
NATIONAL WEATHER SERVICE PEACHTREE CITY GA
100 AM EDT FRI SEP 19 2014

NOTE: "FAIR" INDICATES FEW OR NO CLOUDS BELOW 12,000 FEET WITH NO
SIGNIFICANT WEATHER AND/OR OBSTRUCTIONS TO VISIBILITY.

* = USE WITH CAUTION. THE STATIONS MARKED WITH AN ASTERISK MAY NOT
REPORT WEATHER SUCH AS PRECIPITATION, FOG, OR THUNDER AND ARE NOT
QUALITY CONTROLLED BY NWS.

THE REMARK "TC" DENOTES TEMPERATURE READING IN DEGREES CELSIUS.

GAZ001>058-190600-
NORTH GEORGIA

CITY           SKY/WX    TMP DP  RH WIND       PRES   REMARKS
ATLANTA        MOCLDY    72  67  84 S3        30.02R
ATHENS         MOCLDY    67  65  93 NE3       30.02S
CHAMBLEE       CLOUDY    69  66  90 CALM      30.03R
PEACHTREE CITY CLOUDY    68  67  96 CALM      30.02S FOG
ROME           MOCLDY    67  61  81 N3        30.01S
WEST ATLANTA   CLOUDY    68  65  90 NE3       30.02R
GAINESVILLE    MOCLDY    69  64  84 E5        30.06S
CARTERSVILLE   MOCLDY    64  61  90 CALM      30.02S


CITY           SKY/WX    TMP DP  RH WIND       PRES   REMARKS
DALTON*        PTCLDY    63  63 100 CALM      30.03R
MARIETTA       CLOUDY    69  65  85 CALM      30.02S
$$

GAZ059>098-102>109-190600-
CENTRAL GEORGIA

CITY           SKY/WX    TMP DP  RH WIND       PRES   REMARKS
AUGUSTA-BUSH   FOG       67  66  97 CALM      29.99F VSB 3/4
AUGUSTA-DANIEL PTCLDY    73  67  81 CALM      30.01S
COLUMBUS       MOCLDY    72  66  81 CALM      29.99R
MACON          PTCLDY    65  65 100 CALM      30.00R FOG
ROBINS AFB     PTCLDY    68  67  97 N2        30.00R


CITY           SKY/WX    TMP DP  RH WIND       PRES   REMARKS
LAGRANGE*      MOCLDY    71  71  99 CALM      30.00F FOG
SYLVANIA*      HVY RAIN  75  73  95 NE3       30.01S
MILLEDGEVILLE* PTCLDY    68  68 100 CALM      30.00S FOG
$$

GAZ099>101-110>166-190600-
SOUTH GEORGIA

CITY           SKY/WX    TMP DP  RH WIND       PRES   REMARKS
SAVANNAH       CLEAR     72  68  87 N3        29.99R
VALDOSTA       MOCLDY    73  68  84 N5        29.96S
ALMA           CLOUDY    72  70  93 CALM      29.96F
ST SIMONS      CLOUDY    80  70  71 SE3       29.96S
FT STEWART     PTCLDY    72  70  94 CALM      29.96F
ALBANY         CLOUDY    73  69  87 E3        29.99R
HUNTER AFB     CLEAR     74  72  92 N2        29.96S
MOODY AFB      MOCLDY    72  68  87 NE5       29.96F
BRUNSWICK      CLOUDY    73  72  94 CALM      29.97S


CITY           SKY/WX    TMP DP  RH WIND       PRES   REMARKS
BAINBRIDGE*    MOCLDY    73  68  83 E3        29.96R
MOULTRIE*      CLOUDY    73  70  88 NE3       29.97F
VIDALIA*       PTCLDY    72  72 100 CALM      29.99S
WAYCROSS*      CLOUDY    77  75  95 CALM      29.96F
DOUGLAS*       CLOUDY    75  70  83 NE5       29.98F
$$



USA.gov is the U.S. government's official web portal to all federal, state and local government web resources and services.